Regional Weather Roundup
Issued by NWS Kansas City/Pleasant Hill, MO

Home | Current Version | Previous Version | Text Only | Print | Product List | Glossary On
Versions: 1 2 3 4 5 6 7 8 9 10 11 12 13 14 15 16 17 18 19 20 21 22 23 24 25 26 27 28 29 30 31 32 33 34 35 36 37 38 39 40 41 42 43 44 45 46 47 48 49 50
000
ASUS43 KEAX 012110
RWREAX

WEATHER ROUNDUP FOR EASTERN KANSAS AND NORTHWEST MISSOURI
NATIONAL WEATHER SERVICE KANSAS CITY/PLEASANT HILL MO
400 PM CDT TUE SEP 01 2015

KSZ040-057-103>105-MOZ028-029-037-043-012200-
...KANSAS CITY METROPOLITAN AREA...

CITY           SKY/WX    TMP DP  RH WIND       PRES   REMARKS
K.C. INTL      MOSUNNY   90  66  45 S15       29.99F HX  92
K.C. DOWNTOWN  MOSUNNY   91  68  46 S14G20    29.99F HX  95
LEES SUMMIT    SUNNY     89  68  49 S8G18     30.01F HX  93
OLATHE - IXD   SUNNY     87  69  54 S13G21    30.01F HX  91
OLATHE - OJC   SUNNY     86  69  56 S12       30.01F HX  90
LAWRENCE       SUNNY     90  66  45 S15       29.98F HX  92

$$

MOZ001>008-011>017-020>025-030>033-038>040-044>046-053-054-012200-
...NORTHERN AND CENTRAL MISSOURI...

CITY           SKY/WX    TMP DP  RH WIND       PRES   REMARKS
ST. JOSEPH     SUNNY     89  68  49 S12G22    29.97F HX  93
MOSBY          CLEAR     88  64  45 S10       30.00S
WARRENSBURG    SUNNY     90  64  43 S9        30.01F HX  91
WHITEMAN AFB   MOSUNNY   92  68  45 SW12      30.01F HX  95
CLINTON        SUNNY     91  66  43 S13       30.03F HX  94
SEDALIA        MOSUNNY   92  67  43 S10       30.04F HX  95
WARSAW         NOT AVBL
CHILLICOTHE      N/A     91  68  46 S14       30.00F HX  95
KIRKSVILLE     SUNNY     89  67  47 SW10      30.03F HX  92

$$

MOZ041-047>049-056>058-063>065-088>090-097-012200-
...EASTERN AND SOUTHERN MISSOURI...

CITY           SKY/WX    TMP DP  RH WIND       PRES   REMARKS
ST. LOUIS INTL MOSUNNY   92  68  45 S10       30.05F HX  96
SPIRIT OF STL  MOSUNNY   91  71  51 VRB6      30.03F HX  97
COLUMBIA       SUNNY     89  68  49 SW8       30.04F HX  93
JEFFERSON CITY SUNNY     91  65  41 S12       30.01F HX  93
ROLLA          MOSUNNY   89  66  46 S14       30.06S HX  91
OSAGE BEACH    MOSUNNY   90  66  45 S5        30.05F HX  92
SPRINGFIELD    SUNNY     87  65  47 SE9       30.06F
BRANSON        PTSUNNY   88  66  48 S10       30.08F HX  90
JOPLIN         MOSUNNY   86  67  52 S8        30.04F
WEST PLAINS    MOSUNNY   84  68  58 S9        30.10F

$$

IAZ060-094-KSZ022-034>040-054-083-096-NEZ052-066-093-012200-
...KANSAS...SOUTHEAST NEBRASKA AND IOWA...

CITY           SKY/WX    TMP DP  RH WIND       PRES   REMARKS
TOPEKA         SUNNY     91  65  41 S14G24    29.97F HX  93
MANHATTAN      MOSUNNY   94  63  35 S15G22    29.93F HX  95
EMPORIA        SUNNY     88  64  44 S20       29.98F
CHANUTE        SUNNY     88  68  51 S12       30.01F HX  91
WICHITA        MOSUNNY   93  61  34 S15       29.94F HX  93
OMAHA          PTSUNNY   88  71  57 S15       29.91F HX  94
LINCOLN        PTSUNNY   90  66  45 S15G26    29.90F HX  92
FALLS CITY     SUNNY     92  67  43 S16G22    29.94F HX  95
LAMONI         MOSUNNY   89  70  53 S12       29.98F HX  94
DES MOINES     CLOUDY    89  71  55 S10       29.95F HX  95

$$




USA.gov is the U.S. government's official web portal to all federal, state and local government web resources and services.